Location: Ermatingen
(47.6706°N, 9.0857°E)
Time: 08:59:45
(UTC+00:00)

Cosmos 1867 - Pass Details

Date: 18 September 2020
Orbit: 777 x 799 km, 65.0° (Epoch: 24 October)

Event Time Altitude Azimuth Distance (km) Brightness Sun altitude
Rises 18:25:42 0° 323° (NW) 3,313 7.7 -10.3°
Reaches altitude 10° 18:28:09 10° 325° (NW) 2,380 6.8 -10.7°
Maximum altitude 18:33:39 75° 51° (NE) 830 3.6 -11.6°
Enters shadow 18:38:38 12° 136° (SE) 2,193 5.3 -12.4°
